Location: Unspecified
(48.8656°N, 0.0000°E)
Time: 04:19:38
(UTC+00:00)

Vanguard 1 Rocket - Pass Details

Date: 26 June 2019
Orbit: 652 x 4224 km, 34.3° (Epoch: 21 August)

Event Time Altitude Azimuth Distance (km) Brightness Sun altitude
Rises 12:37:22 0° 186° (S) 8,458 12.7 63.6°
Reaches altitude 10° 12:47:40 10° 168° (SSE) 7,250 12.5 63.0°
Maximum altitude 12:58:46 15° 140° (SE) 6,211 12.0 62.2°
Drops below altitude 10° 13:07:57 10° 111° (ESE) 5,942 11.6 61.4°
Sets 13:14:31 0° 92° (E) 6,274 11.5 60.8°
